EW7067 Weather Reports


time (UTC)temp
C
wind
direction
speed
KPH
gust
KPH
rain 1hr
cm
rain 24hr
cm
rain mn
cm
humidity
%
barometer
mb
20260503054914 3 21 0.0 0.0 0.00 0.00 0.00 86 971.7
20260503054409 3 21 0.0 0.0 0.00 0.00 0.00 86 971.6
20260503053903 3 21 0.0 0.0 0.00 0.00 0.00 86 971.7
20260503053356 3 21 0.0 0.0 0.00 0.00 0.00 86 971.6
20260503052346 3 21 0.0 0.0 0.00 0.00 0.00 84 971.6
20260503051838 4 21 0.0 0.0 0.00 0.00 0.00 83 971.6
20260503051332 4 21 0.0 0.0 0.00 0.00 0.00 83 971.6
20260503050826 4 21 0.0 0.0 0.00 0.00 0.00 83 971.6
20260503050320 4 21 0.0 0.0 0.00 0.00 0.00 83 971.6
20260503045815 4 21 0.0 0.0 0.00 0.00 0.00 83 971.5
20260503045308 4 21 0.0 0.0 0.00 0.00 0.00 82 971.5
20260503044257 5 21 0.0 0.0 0.00 0.00 0.00 81 971.5
20260503043752 5 21 0.0 0.0 0.00 0.00 0.00 80 971.5
20260503043244 5 21 0.0 0.0 0.00 0.00 0.00 80 971.5
20260503042232 5 21 0.0 0.0 0.00 0.00 0.00 79 971.3
20260503041726 5 21 0.0 0.0 0.00 0.00 0.00 79 971.2
20260503040714 6 21 0.0 0.0 0.00 0.00 0.00 76 971.1
20260503040209 6 21 0.0 0.0 0.00 0.00 0.00 75 971.1
20260503035156 6 21 0.0 0.0 0.00 0.00 0.00 73 971.1
20260503034650 6 21 0.0 0.0 0.00 0.00 0.00 72 971.1
20260503034145 7 21 0.0 0.0 0.00 0.00 0.00 72 971.1
20260503033639 7 21 0.0 0.0 0.00 0.00 0.00 71 971.0
20260503033133 7 21 0.0 0.0 0.00 0.00 0.00 71 971.0
20260503032627 7 21 0.0 0.0 0.00 0.00 0.00 71 970.9
20260503031614 7 21 0.0 0.0 0.00 0.00 0.00 69 970.8
20260503031110 7 21 0.0 0.0 0.00 0.00 0.00 68 970.8
20260503030602 7 21 0.0 0.0 0.00 0.00 0.00 67 970.8
20260503030057 8 21 0.0 0.0 0.00 0.00 0.00 67 970.8
20260503025551 8 21 0.0 0.0 0.00 0.00 0.00 66 970.8
20260503024538 8 21 1.6 4.8 0.00 0.00 0.00 61 970.7
20260503024032 9 21 1.6 4.8 0.00 0.00 0.00 60 970.7
20260503023526 9 16 0.0 3.2 0.00 0.00 0.00 59 970.6
20260503023020 9 16 0.0 3.2 0.00 0.00 0.00 59 970.6
20260503022008 10 15 0.0 0.0 0.00 0.00 0.00 58 970.4
20260503021502 10 15 0.0 0.0 0.00 0.00 0.00 57 970.4
20260503020956 10 15 0.0 1.6 0.00 0.00 0.00 57 970.5
20260503020451 11 15 0.0 3.2 0.00 0.00 0.00 54 970.5
20260503015945 11 15 1.6 4.8 0.00 0.00 0.00 54 970.5
20260503015438 11 15 1.6 9.7 0.00 0.00 0.00 54 970.4
20260503014932 11 0 3.2 14.5 0.00 0.00 0.00 53 970.2
20260503014426 11 5 3.2 14.5 0.00 0.00 0.00 53 970.1
20260503013921 11 11 3.2 8.0 0.00 0.00 0.00 53 970.1
20260503013414 11 355 4.8 12.9 0.00 0.00 0.00 53 970.0
20260503012909 11 355 4.8 14.5 0.00 0.00 0.00 53 969.9
20260503012402 11 24 4.8 14.5 0.00 0.00 0.00 53 969.9
20260503011856 11 5 4.8 12.9 0.00 0.00 0.00 53 969.8
20260503011350 12 350 4.8 19.3 0.00 0.00 0.00 53 969.7
20260503010844 12 33 3.2 19.3 0.00 0.00 0.00 53 969.6
20260503010339 12 350 3.2 19.3 0.00 0.00 0.00 53 969.5
20260503005327 12 53 6.4 16.1 0.00 0.00 0.00 53 969.3
20260503004821 12 32 6.4 16.1 0.00 0.00 0.00 52 969.3
20260503003809 12 18 3.2 9.7 0.00 0.00 0.00 52 969.1
20260503003303 13 52 3.2 6.4 0.00 0.00 0.00 51 969.0
20260503002756 13 355 3.2 9.7 0.00 0.00 0.00 52 969.0
20260503002250 13 5 3.2 11.3 0.00 0.00 0.00 51 968.9
20260503001745 13 349 1.6 11.3 0.00 0.00 0.00 51 968.7
20260503001239 13 11 3.2 16.1 0.00 0.00 0.00 50 968.6
20260503000732 14 5 4.8 16.1 0.00 0.00 0.00 49 968.5
20260503000227 14 343 6.4 17.7 0.00 0.00 0.00 49 968.5
20260502235725 14 306 6.4 17.7 0.00 0.00 0.00 48 968.3
20260502235224 15 355 3.2 14.5 0.00 0.00 0.00 48 968.3
20260502234724 15 317 4.8 19.3 0.00 0.00 0.00 49 968.2
20260502234222 15 5 8.0 19.3 0.00 0.00 0.00 48 968.2
20260502233722 15 325 6.4 16.1 0.00 0.00 0.00 49 968.0
20260502232721 15 299 6.4 19.3 0.00 0.00 0.00 48 967.9
20260502232220 15 5 8.0 19.3 0.00 0.00 0.00 47 967.8
20260502231720 15 15 4.8 19.3 0.00 0.00 0.00 47 967.7
20260502231220 15 31 3.2 20.9 0.00 0.00 0.00 48 967.7
20260502230718 15 24 4.8 20.9 0.00 0.00 0.00 47 967.6
20260502225219 15 32 8.0 24.1 0.00 0.00 0.00 45 967.6
20260502224217 16 355 6.4 19.3 0.00 0.00 0.00 45 967.4
20260502223710 17 44 8.0 19.3 0.00 0.00 0.00 44 967.4
20260502223210 17 29 9.7 22.5 0.00 0.00 0.00 43 967.3
20260502222710 17 63 9.7 22.5 0.00 0.00 0.00 44 967.3
20260502222209 17 350 9.7 20.9 0.00 0.00 0.00 45 967.2
20260502221710 16 5 6.4 16.1 0.00 0.00 0.00 46 967.0
20260502220710 16 158 0.0 3.2 0.00 0.00 0.00 56 967.0
20260502220210 16 160 0.0 0.0 0.00 0.00 0.00 53 966.9
20260502215710 16 160 0.0 0.0 0.00 0.00 0.00 54 966.8
20260502215210 16 160 0.0 0.0 0.00 0.00 0.00 54 966.6
20260502214709 16 160 0.0 3.2 0.00 0.00 0.00 51 966.6
20260502214205 16 160 0.0 3.2 0.00 0.00 0.00 51 966.5
20260502213707 16 239 1.6 9.7 0.00 0.00 0.00 52 966.4
20260502213206 17 239 4.8 11.3 0.00 0.00 0.00 49 966.4
20260502212205 17 190 1.6 11.3 0.00 0.00 0.00 52 966.2
20260502211705 17 67 1.6 8.0 0.00 0.00 0.00 53 966.2
20260502211206 17 151 3.2 12.9 0.00 0.00 0.00 50 966.3
20260502210205 17 250 1.6 8.0 0.00 0.00 0.00 51 966.2
20260502205706 17 153 1.6 8.0 0.00 0.00 0.00 51 966.2
20260502205205 17 145 1.6 8.0 0.00 0.00 0.00 48 966.2
20260502204706 17 200 1.6 6.4 0.00 0.00 0.00 52 966.2
20260502204206 17 120 1.6 8.0 0.00 0.00 0.00 50 966.2
20260502203706 17 88 1.6 8.0 0.00 0.00 0.00 50 966.1
20260502203206 17 134 1.6 11.3 0.00 0.00 0.00 51 966.2
20260502202706 17 147 1.6 11.3 0.00 0.00 0.00 49 966.2
20260502202205 17 144 3.2 14.5 0.00 0.00 0.00 49 966.2
20260502201205 17 129 3.2 9.7 0.00 0.00 0.00 52 966.5
20260502200706 17 134 3.2 9.7 0.00 0.00 0.00 50 966.5
20260502200206 17 173 1.6 9.7 0.00 0.00 0.00 53 966.5
20260502195706 17 119 1.6 6.4 0.00 0.00 0.00 50 966.5
20260502195203 17 323 3.2 11.3 0.00 0.00 0.00 49 966.7
20260502194703 17 138 3.2 12.9 0.00 0.00 0.00 49 966.8
20260502194208 17 171 1.6 12.9 0.00 0.00 0.00 48 966.8
20260502193702 17 173 1.6 12.9 0.00 0.00 0.00 51 966.9
20260502193201 16 128 3.2 14.5 0.00 0.00 0.00 51 967.1
20260502192659 16 64 3.2 14.5 0.00 0.00 0.00 49 967.1
20260502192200 16 67 3.2 9.7 0.00 0.00 0.00 52 967.1
20260502191659 16 167 1.6 11.3 0.00 0.00 0.00 50 967.2
20260502191200 16 161 1.6 11.3 0.00 0.00 0.00 49 967.2
20260502190153 16 172 4.8 19.3 0.00 0.00 0.00 51 967.3
20260502185647 16 57 3.2 19.3 0.00 0.00 0.00 51 967.5
20260502185147 16 57 3.2 11.3 0.00 0.00 0.00 51 967.7
20260502184645 16 106 3.2 11.3 0.00 0.00 0.00 50 967.7
20260502184144 16 81 4.8 12.9 0.00 0.00 0.00 51 967.7
20260502183644 16 69 3.2 12.9 0.00 0.00 0.00 51 967.7
20260502183139 15 82 3.2 12.9 0.00 0.00 0.00 53 967.7
20260502182138 15 185 1.6 11.3 0.00 0.00 0.00 53 967.7
20260502181637 15 48 3.2 11.3 0.00 0.00 0.00 53 967.7
20260502181137 15 136 1.6 9.7 0.00 0.00 0.00 54 967.8
20260502180637 15 126 1.6 9.7 0.00 0.00 0.00 53 967.8
20260502180135 15 180 3.2 9.7 0.00 0.00 0.00 53 967.9
20260502164039 13 83 3.2 8.0 0.00 0.00 0.00 59 969.2
20260502163532 12 72 1.6 6.4 0.00 0.00 0.00 61 969.3
20260502163025 12 64 1.6 8.0 0.00 0.00 0.00 60 969.4
20260502162520 12 63 3.2 8.0 0.00 0.00 0.00 59 969.5
20260502162014 12 68 4.8 16.1 0.00 0.00 0.00 60 969.6
20260502161507 12 63 4.8 16.1 0.00 0.00 0.00 61 969.7
20260502161001 12 12 4.8 8.0 0.00 0.00 0.00 61 969.8
20260502160455 12 63 4.8 9.7 0.00 0.00 0.00 61 969.8
20260502151902 12 61 3.2 12.9 0.00 0.00 0.00 61 969.8
20260502151356 12 60 1.6 8.0 0.00 0.00 0.00 60 969.7
20260502150850 12 55 3.2 6.4 0.00 0.00 0.00 60 969.7
20260502150343 12 74 3.2 6.4 0.00 0.00 0.00 60 969.8
20260502130625 11 36 3.2 8.0 0.00 0.00 0.00 65 968.9
20260502123549 11 47 0.0 4.8 0.00 0.00 0.00 75 968.7
20260502123045 11 22 0.0 3.2 0.00 0.00 0.00 77 968.7
20260502122537 11 9 0.0 3.2 0.00 0.00 0.00 77 968.8
20260502122031 11 5 1.6 6.4 0.00 0.00 0.00 77 969.0
20260502121019 11 33 0.0 4.8 0.00 0.00 0.00 80 968.7
20260502115502 11 31 0.0 3.2 0.00 0.00 0.00 81 968.3
20260502114457 11 24 0.0 0.0 0.00 0.00 0.00 81 968.6
20260502113956 11 24 0.0 0.0 0.00 0.00 0.00 81 968.8
20260502113452 11 24 0.0 0.0 0.00 0.00 0.00 81 968.6
20260502111951 11 24 0.0 0.0 0.00 0.00 0.00 81 968.5
20260502111449 11 23 0.0 4.8 0.00 0.00 0.00 81 968.4
20260502110949 11 23 1.6 8.0 0.00 0.00 0.00 79 968.4
20260502110449 11 24 0.0 8.0 0.00 0.00 0.00 79 968.4
20260502105446 11 28 0.0 0.0 0.00 0.00 0.00 79 968.5
20260502104949 11 28 0.0 0.0 0.00 0.00 0.00 80 968.3
20260502104448 11 28 0.0 3.2 0.00 0.00 0.00 80 968.2
20260502103948 11 28 0.0 3.2 0.00 0.00 0.00 79 968.2
20260502103443 11 26 0.0 3.2 0.00 0.00 0.00 80 968.1
20260502102943 11 26 0.0 4.8 0.00 0.00 0.00 79 968.1
20260502102444 11 26 1.6 8.0 0.00 0.00 0.00 80 968.1
20260502101940 11 9 3.2 8.0 0.00 0.00 0.00 80 968.2
20260502101441 11 70 3.2 8.0 0.00 0.00 0.00 81 968.0
20260502100941 11 56 1.6 4.8 0.00 0.00 0.00 82 968.0
20260502100440 11 56 0.0 4.8 0.00 0.00 0.00 83 968.0
20260502091440 10 31 0.0 4.8 0.00 0.00 0.00 88 968.6
20260502090441 10 123 0.0 3.2 0.00 0.00 0.00 91 968.5
20260502071331 10 193 0.0 0.0 0.00 0.00 0.00 93 967.6
20260502070824 10 193 0.0 0.0 0.00 0.00 0.00 93 967.5
20260502070318 10 193 0.0 0.0 0.00 0.00 0.00 93 967.4
20260502065306 10 193 0.0 0.0 0.00 0.00 0.00 93 967.6
20260502064800 10 193 0.0 0.0 0.00 0.00 0.00 93 967.6
20260502063746 10 193 0.0 0.0 0.00 0.00 0.00 93 967.5